CW7977 Corfu GR current weather conditions

sailwx.info

Wind from 130 at 1 knots gusting 4

Air temperature 20.0° C
Dewpoint 10.7° C

Last reported at 2014-Oct-31 11:47 UTC.
Time now 2014-Oct-31 12:56 UTC

Location: N 39°37' E 019°54'.
View on Google Maps.

See reports from other nearby stations

  
Tides and Currents Weather Stations Pressure Air Temp Water Temp Dewpoint Dewpoint Depression Visibility Wind Speed Wind Dir Waves Ship Positions
date/time (UTC)wind fromknots sea level pressurealtimeterstation pressurevisibilityair tempwater tempwave heightnotes
2014-Oct-31 11:47 130 1 gusting 4 20.0
2014-Oct-31 11:37 135 1 gusting 4 20.0
2014-Oct-31 11:27 171 0 gusting 4 19.4
2014-Oct-31 11:17 158 0 gusting 6 19.4
2014-Oct-31 11:07 154 2 gusting 5 19.4
2014-Oct-31 10:57 144 1 gusting 6 19.4
2014-Oct-31 10:47 160 1 gusting 5 18.9
2014-Oct-31 10:37 127 1 gusting 4 18.9
2014-Oct-31 10:27 100 0 gusting 4 18.9
2014-Oct-31 10:17 145 2 gusting 6 18.9
2014-Oct-31 10:07 146 0 gusting 4 18.9
2014-Oct-31 09:57 051 1 gusting 4 18.3
2014-Oct-31 09:47 125 0 gusting 6 18.3
2014-Oct-31 09:37 135 2 gusting 6 18.3
2014-Oct-31 09:27 135 3 gusting 6 18.3
2014-Oct-31 09:17 146 1 gusting 5 18.3
2014-Oct-31 09:07 118 2 gusting 6 17.8
2014-Oct-31 08:57 148 1 gusting 6 17.8
2014-Oct-31 08:47 086 2 gusting 6 17.8
2014-Oct-31 08:37 120 1 gusting 4 17.2
2014-Oct-31 08:27 141 3 gusting 5 17.2
2014-Oct-31 08:17 056 1 gusting 2 16.7
2014-Oct-31 08:07 048 0 gusting 4 16.1
2014-Oct-31 07:57 122 15.6
2014-Oct-31 07:47 033 1 gusting 5 15.6
2014-Oct-31 07:27 248 14.4
2014-Oct-31 07:17 213 14.4
2014-Oct-31 07:07 225 13.9
2014-Oct-31 06:57 202 13.3
2014-Oct-31 06:47 220 0 gusting 1 12.8
2014-Oct-31 06:37 219 12.8
2014-Oct-31 06:27 225 12.2
2014-Oct-31 06:17 248 11.7
2014-Oct-31 06:07 216 0 gusting 2 11.7
2014-Oct-31 05:57 248 11.7
2014-Oct-31 05:47 248 11.7
2014-Oct-31 05:37 248 11.7
2014-Oct-31 05:27 248 11.7
2014-Oct-31 05:17 248 11.7
2014-Oct-31 05:07 232 11.7
2014-Oct-31 04:57 234 0 gusting 1 11.7
2014-Oct-31 04:47 270 11.7
2014-Oct-31 04:37 248 11.7
2014-Oct-31 04:27 248 11.7
2014-Oct-31 04:17 248 11.7
2014-Oct-31 04:07 269 12.2
2014-Oct-31 03:57 248 0 gusting 2 12.2
2014-Oct-31 03:47 248 12.2
2014-Oct-31 03:37 339 12.2
2014-Oct-31 03:27 032 0 gusting 1 12.2
2014-Oct-31 03:17 355 0 gusting 2 11.7
2014-Oct-31 03:07 330 11.7
2014-Oct-31 02:57 11.7
2014-Oct-31 02:47 318 11.1
2014-Oct-31 02:37 248 11.1
2014-Oct-31 02:27 248 11.1
2014-Oct-31 02:17 225 11.1
2014-Oct-31 02:07 180 11.1
2014-Oct-31 01:57 248 11.1
2014-Oct-31 01:47 248 11.7
2014-Oct-31 01:37 265 11.7
2014-Oct-31 01:27 090 11.7
2014-Oct-31 01:17 064 0 gusting 0 11.1
2014-Oct-31 01:07 270 11.1
2014-Oct-31 00:57 270 11.1
2014-Oct-31 00:47 292 11.7
2014-Oct-31 00:37 243 0 gusting 1 11.7
2014-Oct-31 00:27 158 11.1
2014-Oct-31 00:17 248 11.1
2014-Oct-31 00:09 248 11.1
2014-Oct-30 23:57 248 11.1
2014-Oct-30 23:47 248 11.7
2014-Oct-30 23:37 225 11.7
2014-Oct-30 23:27 248 11.7
2014-Oct-30 23:17 225 11.7
2014-Oct-30 23:07 231 0 gusting 1 11.7
2014-Oct-30 22:57 225 11.7
2014-Oct-30 22:47 248 11.7
2014-Oct-30 22:37 270 11.7
2014-Oct-30 22:27 270 11.7
2014-Oct-30 22:17 232 0 gusting 1 11.7
2014-Oct-30 22:07 228 11.7
2014-Oct-30 21:57 245 0 gusting 1 11.7
2014-Oct-30 21:47 248 0 gusting 4 12.2
2014-Oct-30 21:37 228 0 gusting 2 12.2
2014-Oct-30 21:27 225 0 gusting 1 12.2
2014-Oct-30 21:17 225 12.2
2014-Oct-30 21:07 227 12.2
2014-Oct-30 20:57 248 12.8
2014-Oct-30 20:47 248 12.8
2014-Oct-30 20:37 248 0 gusting 2 12.8
2014-Oct-30 20:27 248 12.8
2014-Oct-30 20:17 248 0 gusting 2 12.8
2014-Oct-30 20:07 225 12.8
2014-Oct-30 19:57 248 13.3
2014-Oct-30 19:47 248 13.3
2014-Oct-30 19:37 248 0 gusting 2 13.3
2014-Oct-30 19:27 235 0 gusting 2 13.3
2014-Oct-30 19:17 248 13.3
2014-Oct-30 19:07 248 13.3
2014-Oct-30 18:57 248 13.3
2014-Oct-30 18:47 225 0 gusting 1 13.3
2014-Oct-30 18:37 222 0 gusting 1 13.3
2014-Oct-30 18:27 225 13.3
2014-Oct-30 18:17 237 13.9
2014-Oct-30 18:07 225 13.9
2014-Oct-30 17:57 202 13.9
2014-Oct-30 17:47 202 14.4
2014-Oct-30 17:37 269 14.4
2014-Oct-30 17:27 270 0 gusting 1 14.4
2014-Oct-30 17:17 248 14.4
2014-Oct-30 17:07 248 14.4
2014-Oct-30 16:57 270 15.0
2014-Oct-30 16:47 300 0 gusting 2 15.0
2014-Oct-30 16:37 306 15.0
2014-Oct-30 16:27 270 0 gusting 4 15.0
2014-Oct-30 16:17 289 0 gusting 4 15.6
2014-Oct-30 16:07 298 1 gusting 2 15.6
2014-Oct-30 15:57 292 0 gusting 4 15.6
2014-Oct-30 15:47 239 15.6
2014-Oct-30 15:37 302 1 gusting 6 16.1
2014-Oct-30 15:27 313 2 gusting 6 16.7
2014-Oct-30 15:17 269 1 gusting 6 16.7
2014-Oct-30 15:07 273 1 gusting 5 17.2
2014-Oct-30 14:57 298 2 gusting 7 17.8
2014-Oct-30 14:47 295 2 gusting 6 17.8
2014-Oct-30 14:37 284 1 gusting 6 18.3
2014-Oct-30 14:27 275 1 gusting 6 18.3
2014-Oct-30 14:17 290 3 gusting 6 18.3
2014-Oct-30 14:07 298 2 gusting 6 18.3
2014-Oct-30 13:57 283 6 gusting 10 18.3
2014-Oct-30 13:47 308 4 gusting 10 18.3
2014-Oct-30 13:37 285 3 gusting 7 18.3
2014-Oct-30 13:27 314 2 gusting 10 18.3
2014-Oct-30 13:17 290 3 gusting 6 18.3
2014-Oct-30 13:07 293 2 gusting 7 18.3
2014-Oct-30 12:57 308 5 gusting 7 18.3
2014-Oct-30 12:47 305 2 gusting 10 17.8
2014-Oct-30 12:37 301 2 gusting 7 17.2
2014-Oct-30 12:27 291 0 gusting 6 17.2
2014-Oct-30 12:17 295 17.8
2014-Oct-30 12:07 292 17.8
2014-Oct-30 11:57 330 17.8
2014-Oct-30 11:47 050 0 gusting 2 18.3
2014-Oct-30 11:37 292 18.3
2014-Oct-30 11:27 088 0 gusting 2 18.3
2014-Oct-30 11:17 099 0 gusting 2 18.3
2014-Oct-30 11:07 292 0 gusting 1 17.8
2014-Oct-30 10:57 040 17.8
2014-Oct-30 10:47 016 17.8
2014-Oct-30 10:37 112 17.8
2014-Oct-30 10:27 049 17.8
2014-Oct-30 10:17 139 17.2
2014-Oct-30 10:07 17.2
2014-Oct-30 09:57 090 17.2
2014-Oct-30 09:47 045 1 gusting 2 17.2
2014-Oct-30 09:37 120 17.2
2014-Oct-30 09:27 158 0 gusting 2 17.8
2014-Oct-30 09:17 127 2 gusting 4 17.8
2014-Oct-30 09:07 127 0 gusting 6 17.8
2014-Oct-30 08:57 139 3 gusting 6 17.8
2014-Oct-30 08:47 129 2 gusting 4 17.8
2014-Oct-30 08:37 138 1 gusting 2 17.2
2014-Oct-30 08:27 115 0 gusting 2 17.2
2014-Oct-30 08:17 148 0 gusting 2 17.2
2014-Oct-30 08:07 135 1 gusting 2 16.7
2014-Oct-30 07:57 139 0 gusting 2 16.7
2014-Oct-30 07:47 134 0 gusting 2 16.1
2014-Oct-30 07:37 075 15.6
2014-Oct-30 07:27 162 15.0
2014-Oct-30 07:17 158 14.4
2014-Oct-30 07:07 202 13.9
2014-Oct-30 06:57 202 13.3
2014-Oct-30 06:47 202 13.3
2014-Oct-30 06:37 225 0 gusting 1 12.8
2014-Oct-30 06:27 225 12.2
2014-Oct-30 06:17 248 11.7
2014-Oct-30 06:07 225 0 gusting 1 11.7
2014-Oct-30 05:57 248 11.1
2014-Oct-30 05:47 225 11.1
2014-Oct-30 05:37 225 11.1
2014-Oct-30 05:27 225 11.1
2014-Oct-30 05:17 225 0 gusting 1 11.1
2014-Oct-30 05:07 225 11.1
2014-Oct-30 04:57 225 11.1
2014-Oct-30 04:47 253 11.1
2014-Oct-30 04:37 248 11.1
2014-Oct-30 04:27 246 11.1
2014-Oct-30 04:17 235 11.1
2014-Oct-30 04:07 248 0 gusting 1 11.1
2014-Oct-30 03:57 248 11.1
2014-Oct-30 03:47 260 11.1
2014-Oct-30 03:37 250 0 gusting 1 11.1
2014-Oct-30 03:27 225 11.1
2014-Oct-30 03:17 248 11.1
2014-Oct-30 03:07 248 11.1
2014-Oct-30 02:57 236 1 gusting 2 11.1
2014-Oct-30 02:47 230 0 gusting 2 11.1
2014-Oct-30 02:37 248 11.7
2014-Oct-30 02:27 248 11.7
2014-Oct-30 02:17 249 0 gusting 1 11.7
2014-Oct-30 02:07 270 11.7
2014-Oct-30 01:57 248 11.7
2014-Oct-30 01:47 248 11.7
2014-Oct-30 01:37 270 11.7
2014-Oct-30 01:27 229 0 gusting 2 11.7
2014-Oct-30 01:17 225 11.7
2014-Oct-30 01:07 225 11.7
2014-Oct-30 00:57 245 11.7
2014-Oct-30 00:47 270 11.7
2014-Oct-30 00:37 280 12.2
2014-Oct-30 00:27 270 12.2
2014-Oct-30 00:17 248 0 gusting 1 12.2
2014-Oct-30 00:07 242 0 gusting 1 12.2
2014-Oct-29 23:57 248 12.2
2014-Oct-29 23:47 248 12.2
2014-Oct-29 23:37 225 0 gusting 1 12.2
2014-Oct-29 23:27 248 0 gusting 2 12.2
2014-Oct-29 23:17 265 0 gusting 1 12.2
2014-Oct-29 23:07 248 12.2
2014-Oct-29 22:57 248 0 gusting 2 12.8
2014-Oct-29 22:47 241 0 gusting 1 12.8
2014-Oct-29 22:37 225 12.8
2014-Oct-29 22:27 246 12.8
2014-Oct-29 22:17 225 0 gusting 2 12.8
2014-Oct-29 22:07 248 0 gusting 2 12.8
2014-Oct-29 21:57 246 0 gusting 1 12.8
2014-Oct-29 21:47 225 12.8
2014-Oct-29 21:37 225 0 gusting 1 12.8
2014-Oct-29 21:27 248 13.3
2014-Oct-29 21:17 243 13.3
2014-Oct-29 21:07 255 0 gusting 0 13.3
2014-Oct-29 20:57 248 13.3
2014-Oct-29 20:47 248 13.3
2014-Oct-29 20:37 241 0 gusting 4 13.3
2014-Oct-29 20:27 241 0 gusting 2 13.3
2014-Oct-29 20:17 248 0 gusting 1 13.3
2014-Oct-29 20:07 225 0 gusting 1 13.3
2014-Oct-29 19:57 248 13.3
2014-Oct-29 19:47 227 0 gusting 0 13.3
2014-Oct-29 19:37 225 13.3
2014-Oct-29 19:27 225 13.3
2014-Oct-29 19:17 248 0 gusting 0 13.9
2014-Oct-29 19:07 270 0 gusting 0 13.9
2014-Oct-29 18:57 202 0 gusting 1 13.9
2014-Oct-29 18:47 202 0 gusting 1 13.9
2014-Oct-29 18:37 229 0 gusting 1 14.4
2014-Oct-29 18:27 225 0 gusting 1 14.4
2014-Oct-29 18:17 225 0 gusting 1 14.4
2014-Oct-29 18:07 225 14.4
2014-Oct-29 17:57 248 0 gusting 1 15.0
2014-Oct-29 17:47 225 15.0
2014-Oct-29 17:37 225 15.0
2014-Oct-29 17:27 225 15.0
2014-Oct-29 17:17 270 15.6
2014-Oct-29 17:07 270 15.6
2014-Oct-29 16:57 253 15.6
2014-Oct-29 16:47 283 15.6
2014-Oct-29 16:37 292 16.1
2014-Oct-29 16:27 293 1 gusting 2 16.1
2014-Oct-29 16:17 294 0 gusting 2 16.7
2014-Oct-29 16:07 298 0 gusting 2 16.7
2014-Oct-29 15:57 300 17.2
2014-Oct-29 15:47 270 17.8
2014-Oct-29 15:37 298 1 gusting 2 17.8
2014-Oct-29 15:27 293 0 gusting 5 17.8
2014-Oct-29 15:17 302 1 gusting 4 18.3
2014-Oct-29 15:07 315 1 gusting 5 18.3
2014-Oct-29 14:57 302 0 gusting 4 18.3
2014-Oct-29 14:47 315 18.9
2014-Oct-29 14:37 292 0 gusting 4 18.9
2014-Oct-29 14:27 285 2 gusting 6 18.9
2014-Oct-29 14:17 292 0 gusting 6 18.9
2014-Oct-29 14:07 298 4 gusting 7 18.9
2014-Oct-29 13:57 266 0 gusting 6 18.9
2014-Oct-29 13:47 301 2 gusting 6 18.9
2014-Oct-29 13:37 284 0 gusting 4 18.9
2014-Oct-29 13:27 298 0 gusting 4 18.9
2014-Oct-29 13:17 316 2 gusting 5 18.9
2014-Oct-29 13:07 278 2 gusting 6 18.9
2014-Oct-29 12:57 272 4 gusting 6 19.4
2014-Oct-29 12:47 257 2 gusting 10 19.4
2014-Oct-29 12:37 282 1 gusting 6 19.4
2014-Oct-29 12:27 225 1 gusting 6 19.4
2014-Oct-29 12:17 230 1 gusting 2 20.0
2014-Oct-29 12:07 026 0 gusting 1 20.0